Tracking 27419 objects as of 9-Jun-2023
HD Live streaming from Space Station
objects crossing your sky now

STARLINK-1760

Track STARLINK-1760 now!
10-day predictions
STARLINK-1760 is classified as:


NORAD ID: 46341
Int'l Code: 2020-062S
Perigee: 553.7 km
Apogee: 555.0 km
Inclination: 53.1 °
Period: 95.6 minutes
Semi major axis: 6925 km
RCS: Unknown
Launch date: September 3, 2020
Source: United States (US)
Launch site: AIR FORCE EASTERN TEST RANGE (AFETR)
Your satellite tracking list
Your tracking list is empty




NASA's NSSDC Master Catalog

Two Line Element Set (TLE):
1 46341U 20062S   23159.37883843  .00000553  00000-0  55979-4 0  9994
2 46341  53.0532 189.6293 0000964  82.4758 277.6340 15.06394325153072
Source of the keplerian elements: AFSPC